Regional Weather Roundup
Issued by NWS

Home | Current Version | Previous Version | Text Only | Print | Product List | Glossary On
Versions: 1 2 3 4 5 6 7 8 9 10 11 12 13 14 15 16 17 18 19 20 21 22 23 24 25 26 27 28 29 30 31 32 33 34 35 36 37 38 39 40 41 42 43 44 45 46 47 48 49 50
584
ASUS43 KDTX 240110
RWRMI
MICHIGAN HOURLY REGIONAL WEATHER ROUNDUP
NATIONAL WEATHER SERVICE DETROIT/PONTIAC MI
900 PM EDT SUN JUL 23 2017

NOTE: "FAIR" INDICATES FEW OR NO CLOUDS BELOW 12,000 FEET WITH NO
SIGNIFICANT WEATHER AND/OR OBSTRUCTION TO VISIBILITY.

MIZ047>049-052>055-059>063-066>070-074>076-081>083-240200-
SOUTHEAST LOWER MICHIGAN

CITY           SKY/WX    TMP DP  RH WIND       PRES   REMARKS
ADRIAN         CLEAR     75  67  76 CALM      29.78S
ALMA           PTCLDY    75  59  57 NW6       29.78S
ANN ARBOR      PTCLDY    69  64  84 CALM      29.76S
BAD AXE        PTCLDY    65  64  94 CALM      29.77R
CARO           PTCLDY    67  65  94 CALM      29.76S
DETROIT CITY   PTCLDY    82  63  52 NW7       29.74R
DETROIT        MOCLDY    73  69  87 W6        29.76S
FLINT          PTCLDY    73  63  70 NE12      29.77R
GROSSE ILE     MOCLDY    76  69  80 W8        29.74S
HILLSDALE      CLOUDY    73  64  73 W5        29.79S
HOWELL         PTCLDY    71  68  89 SW5       29.77S

CITY           SKY/WX    TMP DP  RH WIND       PRES   REMARKS
JACKSON        PTCLDY    75  64  68 NW6       29.77F
LAMBERTVILLE   PTCLDY    73  70  88 W3        29.76R
LANSING        PTCLDY    75  62  64 W5        29.77F
LAPEER         FAIR      66  64  96 CALM      29.78S
MASON          PTCLDY    75  63  66 W7        29.77S
MONROE         PTCLDY    74  71  91 N6        29.76R
MT. CLEMENS    MOCLDY    76  71  86 VRB3      29.72R
PONTIAC        CLOUDY    77  67  71 W8        29.75R
PORT HOPE        N/A     67  64  90 W3        29.74R
PORT HURON     HVY RAIN  68  64  88 NW6       29.76S
TRI CITIES     PTCLDY    75  65  70 N8        29.77R
MIDLAND        MOCLDY    73  63  69 N5        29.76S
TROY           CLOUDY    81  65  58 W7        29.77R
SAGINAW HB     PTCLDY    70  64  83 NE3       29.76S
$$
MIZ043>046-050>051-056>058-064>065-071>073-077>080-240200-
SOUTHWEST LOWER MICHIGAN

CITY           SKY/WX    TMP DP  RH WIND       PRES   REMARKS
BATTLE CREEK   PTCLDY    77  64  64 NW6       29.79R
BENTON HARBOR  LGT RAIN  74  69  85 CALM      29.80R
BIG RAPIDS     PTCLDY    70  59  67 NW9       29.80R
COLDWATER      PTCLDY    75  65  70 NW3       29.79R
FREMONT        CLOUDY    71  62  71 N9        29.80S
HOLLAND        MOCLDY    74  66  76 NW5       29.80R
GRAND RAPIDS   MOCLDY    77  65  66 NW9       29.78R
IONIA          FAIR      76  62  63 W6        29.77S
KALAMAZOO      MOCLDY    77  64  64 NW6       29.79R
LUDINGTON      MOCLDY    65  63  91 N9        29.83R
MARSHALL       PTCLDY    77  65  68 CALM      29.78R
MOUNT PLEASANT PTCLDY    73  61  64 N6        29.78R
MUSKEGON       MOCLDY    76  64  66 N9        29.80R
SOUTH HAVEN    CLOUDY    75  69  81 N6        29.80R
$$
MIZ016>042-240200-
NORTHERN LOWER MICHIGAN

CITY           SKY/WX    TMP DP  RH WIND       PRES   REMARKS
ALPENA         LGT RAIN  63  62  97 NE9       29.81R
BEAVER ISLAND  RAIN      60  60  97 NE8       29.89R
BELLAIRE       MOCLDY    66  58  75 N9        29.83R
CADILLAC       PTCLDY    69  59  71 NW7       29.82R
CHARLEVOIX     CLOUDY    63  60  88 NE10G16   29.89R
FRANKFORT      CLOUDY    68  64  87 N7        29.84R
GAYLORD        LGT RAIN  62  58  86 N9        29.85R FOG
GRAYLING       PTCLDY    63  58  84 N3        29.83R
HARBOR SPRINGS CLOUDY    61  59  94 NE7       29.86R
HOUGHTON LAKE  PTCLDY    66  61  84 N7        29.81R
MANISTEE       MOCLDY    67  63  87 NW9       29.83S
OSCODA         PTCLDY    67  63  85 NW9       29.76S
PELLSTON       CLOUDY    61  59  93 NE13      29.88R
ROGERS CITY    RAIN      60  59  95 NE10G20   29.85R
TRAVERSE CITY  MOCLDY    69  62  78 N10       29.81R
$$
MIZ007>008-015-240200-
EASTERN UPPER MICHIGAN

CITY           SKY/WX    TMP DP  RH WIND       PRES   REMARKS
KINROSS        CLOUDY    57  54  89 NE12G18   29.92R
MACKINAC ISLAN CLOUDY    60  57  90 NE18G28   29.88R
NEWBERRY       CLOUDY    55  54  97 NE10      29.93R FOG
S. S. MARIE    CLOUDY    58  54  86 NE5       29.92R
MUNISING         N/A     61  56  83 NE13G20   29.95R
$$
MIZ004>006-011>014-085-240200-
CENTRAL UPPER MICHIGAN

CITY           SKY/WX    TMP DP  RH WIND       PRES   REMARKS
MANISTIQUE     CLOUDY    59  56  89 NE12G20   29.91R
ESCANABA       CLOUDY    62  56  80 N8G18     29.92R
MENOMINEE      CLOUDY    63  56  78 N10G21    29.92R
SAWYER-GWINN   CLOUDY    55  52  88 N12       29.97R
$$
MIZ001>003-009>011-084-240200-
WESTERN UPPER MICHIGAN

CITY           SKY/WX    TMP DP  RH WIND       PRES   REMARKS
IRON MOUNTAIN  MOCLDY    62  54  74 N9        29.95R
HOUGHTON       CLEAR     61  51  70 SE6       29.99S
COPPER HARBOR    N/A     63  53  70 CALM      29.98S
IRONWOOD       MOCLDY    61  57  88 CALM      30.02R
$$

ABBREVIATIONS USED IN REMARKS
   TC - TEMPERATURE IN CELSIUS
  WCI - WIND CHILL INDEX
   HX - HEAT INDEX
  VSB - VISIBILITY





USA.gov is the U.S. government's official web portal to all federal, state and local government web resources and services.